#timestamp,LO_Frequency,Hit,StdDev 
1581638415.8,286047000.2,N
1581638435.7,286047000.2,N
1581638455.5,286046998.8,N
1581638475.4,286046999.1,N
1581638495.2,286046996.9,N
1581638515.0,286046997.8,N
1581638515.9,286046997.8,N
1581638535.8,286046999.6,N
1581638555.6,286046999.6,N
1581638575.5,286046997.3,N
1581638595.3,286046997.0,N
1581638615.1,286046996.5,N
1581638635.9,286046999.0,N
1581638655.7,286046999.1,N
1581638675.6,286046998.2,N
1581638695.4,286046999.6,N
1581638715.2,286047000.6,N
1581638735.1,286047002.3,N
1581638736.0,286047002.3,N
1581638755.8,286046998.2,N
1581638775.7,286046998.5,N
1581638795.5,286046998.1,N
1581638815.3,286047001.3,N
1581638835.2,286047001.3,N
1581638855.0,286047002.0,N
1581638855.9,286047002.0,N
1581638875.8,286047000.9,N
1581638895.6,286046999.4,N
1581638915.4,286047000.6,N
1581638935.3,286046999.9,N
1581638955.1,286047000.4,N
1581638975.8,286046999.7,N
1581638995.7,286046999.3,N
1581639015.5,286046999.1,N
1581639035.4,286046998.6,N
1581639055.2,286046999.0,N
1581639075.0,286047004.4,N
1581639075.9,286047004.4,N
1581639095.8,286047002.3,N
1581639115.6,286047002.5,N
1581639135.5,286047001.3,N
1581639155.3,286047002.3,N
1581639175.1,286047002.5,N
1581639195.9,286047001.1,N
1581639215.7,286046998.3,N
1581639235.6,286046999.2,N
1581639255.4,286046999.6,N
1581639275.2,286047000.5,N
1581639295.1,286047001.4,N
1581639296.0,286047001.4,N
1581639315.8,286047005.9,Y
1581639335.7,286046999.7,P
1581639355.5,286046996.8,P
1581639375.3,286047001.1,N
1581639395.2,286047002.7,N
1581639415.0,286047000.3,N
1581639415.9,286047000.3,N
1581639435.8,286047000.4,N
1581639455.6,286047000.0,N
1581639475.4,286046998.2,N
1581639495.3,286047002.8,N
1581639515.1,286047002.7,N
1581639535.9,286047002.7,N
1581639555.7,286047001.3,N
1581639575.5,286047001.8,N
1581639595.4,286047001.3,N
1581639615.2,286047000.0,N
1581639635.0,286047001.9,N
1581639635.9,286047001.9,N
1581639655.8,286047003.9,N
1581639675.6,286047002.7,N
1581639695.5,286047002.0,N
1581639715.3,286047002.7,N
1581639735.1,286046999.7,N
1581639755.9,286047002.5,N
1581639775.7,286047000.1,N
1581639795.5,286047001.8,N
1581639815.4,286047000.2,N
1581639835.2,286047000.3,N
1581639855.1,286046998.6,N
1581639856.0,286046998.6,N
1581639875.8,286047002.5,N
1581639895.6,286047001.9,N
1581639915.5,286047000.6,N
1581639935.3,286046999.3,N
1581639955.1,286047002.4,N
1581639975.9,286047001.9,N
1581639995.7,286047003.3,N
1581640015.6,286047005.6,Y
1581640035.8,286047001.5,P
1581640055.6,286047003.9,P
1581640075.5,286047001.7,N
1581640095.3,286047002.6,N
1581640115.1,286046999.9,N
1581640135.9,286047001.2,N
1581640155.7,286047000.3,N
1581640175.5,286047001.7,N
1581640195.4,286047000.0,N
1581640215.2,286047002.0,N
1581640235.1,286047002.3,N
1581640236.0,286047002.3,N
1581640255.8,286047001.3,N
1581640275.6,286047002.1,N
1581640295.5,286047000.5,N
1581640315.3,286047000.4,N
1581640335.2,286046999.3,N
1581640355.9,286046999.5,N
1581640375.7,286047001.2,N
1581640395.6,286046998.9,N
1581640415.4,286046998.1,N
1581640435.2,286046998.6,N
1581640455.1,286046999.2,N
1581640456.0,286046999.2,N
1581640475.8,286046999.5,N
1581640495.7,286046998.9,N
1581640515.5,286046997.2,N
1581640535.3,286046997.7,N
1581640555.2,286046997.4,N
1581640575.0,286046998.9,N
1581640575.9,286046998.9,N
1581640595.8,286046999.4,N
1581640615.6,286046997.0,N
1581640635.4,286046998.8,N
1581640655.3,286046998.1,N
1581640675.1,286046998.1,N
1581640695.8,286046995.0,Y
1581640715.7,286046998.0,P
1581640735.5,286046997.7,N
1581640755.4,286046998.5,N
1581640775.2,286046999.2,N
1581640795.0,286046998.5,N
1581640795.9,286046998.5,N
1581640815.8,286046996.6,Y
1581640835.6,286047000.6,P
1581640855.5,286047000.1,N
1581640875.3,286047002.8,P
1581640895.1,286047004.3,N
1581640915.9,286047002.8,N
1581640935.7,286046999.9,N
1581640955.5,286047000.0,N
1581640975.4,286047001.6,N
1581640995.2,286047001.8,N
1581641015.1,286047002.0,N
1581641016.0,286047002.0,N
1581641035.8,286047001.9,N
1581641055.6,286047002.4,N
1581641075.5,286046999.9,N
1581641095.3,286047002.0,N
1581641115.1,286046999.8,N
1581641135.9,286046998.1,N
1581641155.7,286047000.9,N
1581641175.6,286047000.4,N
1581641195.4,286047000.5,N
1581641215.2,286047002.2,N
1581641235.1,286047002.2,N
1581641236.0,286047002.2,N
1581641255.8,286046999.9,N
1581641275.6,286046999.9,N
1581641295.5,286047003.6,N
1581641315.3,286047003.6,N
1581641335.2,286047005.8,Y
1581641355.9,286047002.9,P
1581641375.7,286047003.1,P
1581641395.6,286047003.8,P
1581641415.4,286047001.9,N
1581641435.2,286047001.1,N
1581641455.1,286046999.5,N
1581641456.0,286046999.5,N
1581641475.8,286046997.2,N
1581641495.7,286046997.3,N
1581641515.5,286046997.2,N
1581641535.3,286046997.1,N
1581641555.2,286046998.8,N
1581641575.0,286046996.6,N
1581641575.9,286046996.6,N
1581641595.8,286046997.2,N
1581641615.6,286046997.5,N
1581641635.4,286046997.6,N
1581641655.3,286046997.4,N
1581641675.1,286046997.3,N
1581641695.9,286046997.7,N
1581641715.7,286046997.1,N
1581641735.5,286046997.3,N
1581641755.4,286046997.9,N
1581641775.2,286046995.8,N
1581641795.0,286046993.7,N
1581641795.9,286046993.7,N
1581641815.8,286046994.0,N
1581641835.6,286046995.1,N
1581641855.5,286046995.4,N
1581641875.3,286046995.5,N
1581641895.1,286046997.7,N
1581641915.9,286046997.7,N
1581641935.7,286046995.1,N
1581641955.6,286046996.3,N
1581641975.4,286046995.8,N
1581641995.2,286046996.0,N
